Temp
4 4 4 3 3 3 3 3 2 2 2 2 2 2 2 1 1 1 1 1 1 1 1 1 1 2 2 2 2 2 2 2 2 2 2 3 3 3 3 3 3 3 3 3 3 3 3 3 3 3 3 3
3 3 3 3 3 3 2 2 2 1 1 1 1 1 1 1 1 1 1 1 1 1 1 1 1 1 1 1 1 1 1 2 2 2 2 2 2 2 2 2 2 2 2 2 2 3 3 3 3 3 3 3
3 3 3 2 2 2 2 1 1 1 1 1 0 0 0 0 0 0 0 0 0 1 1 1 1 1 1 1 1 1 1 1 1 1 1 1 1 1 1 1 1 2 2 2 2 2 2 2 2 2 2 2
3 2 2 2 2 1 1 1 1 0 0 -0 -0 -0 -0 -0 -0 -0 0 0 0 0 0 0 0 0 0 0 0 0 0 0 0 1 1 1 1 1 1 1 1 1 1 1 1 1 1 1 1 1 2 2
2 2 1 1 1 1 0 0 -0 -0 -1 -1 -1 -1 -1 -1 -1 -0 -0 -0 -1 -1 -1 -1 -0 -0 -0 -0 -0 -0 -0 -0 -0 -0 0 0 0 0 0 0 0 0 0 1 1 1 1 1 1 1 1 1
1 1 1 1 0 -0 -0 -1 -1 -1 -1 -1 -1 -1 -1 -1 -1 -1 -1 -1 -1 -1 -1 -1 -1 -1 -1 -1 -1 -1 -1 -1 -1 -1 -0 -0 -0 -0 -0 -0 -0 0 0 0 0 0 1 1 1 1 1 1
0 0 0 -0 -0 -1 -1 -1 -1 -2 -2 -2 -2 -2 -2 -2 -2 -2 -2 -2 -2 -2 -2 -2 -2 -2 -2 -2 -1 -1 -1 -1 -1 -1 -1 -1 -1 -1 -0 -0 -0 -0 -0 -0 -0 0 0 0 0 1 1 1
-0 0 -0 -1 -1 -1 -1 -2 -2 -2 -2 -2 -3 -3 -3 -3 -2 -3 -2 -2 -2 -2 -2 -2 -2 -2 -2 -2 -2 -2 -2 -2 -2 -1 -1 -1 -1 -1 -1 -1 -1 -1 -0 -0 -0 -0 -0 -0 0 0 0 1
-0 -1 -1 -1 -2 -2 -2 -2 -2 -2 -3 -3 -3 -3 -3 -3 -3 -3 -3 -3 -3 -3 -3 -3 -2 -2 -2 -2 -2 -2 -2 -2 -2 -2 -2 -2 -2 -2 -1 -1 -1 -1 -1 -1 -1 -0 -0 -0 -0 0 0 0
-1 -2 -2 -2 -2 -3 -3 -3 -3 -3 -3 -3 -3 -3 -3 -3 -3 -3 -3 -3 -3 -3 -3 -3 -3 -3 -3 -3 -3 -3 -3 -3 -3 -2 -2 -2 -2 -2 -2 -2 -2 -1 -1 -1 -1 -1 -1 -0 -0 -0 0 0
-3 -3 -3 -3 -3 -3 -3 -4 -4 -4 -4 -4 -4 -4 -4 -4 -4 -4 -4 -3 -3 -3 -3 -3 -3 -3 -3 -3 -3 -3 -3 -3 -3 -3 -3 -2 -2 -2 -2 -2 -2 -2 -2 -2 -1 -1 -1 -1 -1 -0 -0 -0
-3 -3 -3 -4 -4 -4 -4 -4 -4 -4 -4 -4 -4 -4 -4 -4 -4 -4 -4 -4 -4 -4 -4 -4 -4 -4 -4 -4 -4 -4 -3 -3 -3 -3 -3 -3 -3 -3 -3 -2 -2 -2 -2 -2 -2 -2 -1 -1 -1 -1 -1 -1
-4 -4 -4 -4 -4 -5 -5 -5 -5 -5 -4 -4 -4 -5 -5 -5 -5 -5 -4 -4 -4 -4 -4 -4 -4 -4 -4 -4 -4 -4 -4 -4 -4 -4 -4 -3 -3 -3 -3 -3 -3 -2 -2 -2 -2 -2 -2 -2 -2 -1 -1 -1
-4 -4 -4 -5 -5 -5 -5 -5 -5 -5 -5 -5 -5 -5 -5 -5 -5 -5 -5 -5 -5 -5 -5 -5 -5 -5 -5 -5 -5 -5 -4 -4 -4 -4 -4 -4 -4 -4 -3 -3 -3 -3 -2 -2 -2 -2 -2 -2 -2 -2 -1 -1
-4 -5 -5 -5 -5 -6 -6 -6 -6 -6 -6 -6 -6 -6 -6 -6 -6 -6 -5 -5 -5 -5 -5 -5 -5 -5 -5 -5 -5 -5 -5 -5 -5 -5 -5 -4 -4 -4 -4 -4 -3 -3 -3 -3 -3 -2 -2 -2 -2 -2 -2 -1
-5 -6 -6 -6 -6 -6 -6 -6 -6 -6 -6 -6 -6 -6 -6 -6 -6 -6 -6 -6 -6 -6 -6 -6 -6 -6 -5 -5 -5 -5 -5 -5 -5 -5 -5 -5 -5 -4 -4 -4 -4 -4 -3 -3 -3 -3 -3 -2 -2 -2 -2 -2
-6 -6 -6 -7 -7 -7 -7 -7 -7 -7 -7 -7 -7 -7 -7 -7 -7 -7 -7 -7 -7 -6 -6 -6 -6 -6 -6 -6 -6 -6 -6 -5 -5 -5 -5 -5 -5 -5 -5 -4 -4 -4 -4 -3 -3 -3 -3 -3 -2 -2 -2 -2
-7 -7 -7 -7 -7 -7 -7 -8 -8 -8 -8 -8 -8 -8 -8 -8 -8 -7 -7 -7 -7 -7 -7 -7 -6 -6 -6 -6 -6 -6 -6 -6 -6 -6 -5 -5 -5 -5 -5 -5 -5 -4 -4 -4 -4 -3 -3 -3 -3 -3 -2 -2
-7 -7 -8 -8 -8 -8 -8 -8 -8 -8 -8 -8 -8 -8 -8 -8 -8 -8 -8 -8 -7 -7 -7 -7 -7 -7 -6 -6 -6 -6 -6 -6 -6 -6 -6 -6 -6 -5 -5 -5 -5 -5 -4 -4 -4 -4 -4 -3 -3 -3 -3 -2
-8 -8 -8 -8 -9 -9 -9 -9 -9 -9 -9 -9 -9 -9 -9 -9 -8 -8 -8 -8 -8 -8 -7 -7 -7 -7 -7 -7 -6 -6 -6 -6 -6 -6 -6 -6 -6 -6 -6 -5 -5 -5 -5 -5 -4 -4 -4 -4 -3 -3 -3 -3
-9 -9 -9 -9 -9 -9 -10 -10 -10 -10 -9 -9 -9 -9 -9 -9 -9 -9 -8 -8 -8 -8 -8 -7 -7 -7 -7 -7 -7 -7 -6 -6 -6 -6 -6 -6 -6 -6 -6 -6 -6 -5 -5 -5 -5 -4 -4 -4 -4 -4 -3 -3
-9 -10 -10 -10 -10 -10 -10 -10 -10 -10 -10 -10 -10 -10 -9 -9 -9 -9 -9 -9 -8 -8 -8 -8 -8 -7 -7 -7 -7 -7 -7 -7 -7 -7 -6 -6 -6 -6 -6 -6 -6 -6 -5 -5 -5 -5 -5 -4 -4 -4 -4 -3
-10 -10 -10 -10 -10 -10 -11 -10 -10 -10 -10 -10 -10 -10 -10 -10 -9 -9 -9 -9 -9 -8 -8 -8 -8 -8 -8 -7 -7 -7 -7 -7 -7 -7 -7 -7 -7 -7 -6 -6 -6 -6 -6 -6 -5 -5 -5 -5 -4 -4 -4 -4
-11 -11 -11 -11 -11 -11 -11 -11 -11 -11 -11 -10 -10 -10 -10 -10 -10 -10 -9 -9 -9 -9 -9 -9 -8 -8 -8 -8 -8 -8 -7 -7 -7 -7 -7 -7 -7 -7 -7 -7 -6 -6 -6 -6 -6 -5 -5 -5 -5 -4 -4 -4
-11 -11 -11 -11 -11 -11 -11 -11 -11 -11 -11 -11 -11 -11 -10 -10 -10 -10 -10 -10 -10 -9 -9 -9 -9 -9 -8 -8 -8 -8 -8 -8 -8 -7 -7 -7 -7 -7 -7 -7 -7 -7 -6 -6 -6 -6 -5 -5 -5 -5 -4 -4
-12 -12 -12 -12 -12 -12 -12 -11 -11 -11 -11 -11 -11 -11 -11 -10 -10 -10 -10 -10 -10 -10 -10 -9 -9 -9 -9 -9 -8 -8 -8 -8 -8 -8 -8 -7 -7 -7 -7 -7 -7 -7 -7 -6 -6 -6 -6 -5 -5 -5 -5 -5
-12 -12 -12 -12 -12 -12 -12 -11 -11 -11 -11 -11 -11 -11 -11 -11 -11 -10 -10 -10 -10 -10 -10 -9 -9 -9 -9 -9 -9 -8 -8 -8 -8 -8 -8 -8 -8 -7 -7 -7 -7 -7 -7 -7 -7 -6 -6 -6 -5 -5 -5 -5
-12 -12 -12 -12 -12 -12 -12 -12 -11 -11 -11 -11 -11 -11 -11 -11 -11 -11 -11 -10 -10 -10 -10 -10 -9 -9 -9 -9 -9 -9 -9 -8 -8 -8 -8 -8 -8 -8 -8 -8 -8 -8 -8 -7 -7 -7 -6 -6 -6 -5 -5 -5
-12 -12 -12 -12 -12 -12 -11 -11 -11 -11 -11 -11 -11 -11 -11 -11 -11 -11 -11 -11 -11 -10 -10 -10 -10 -10 -10 -10 -9 -9 -9 -9 -9 -9 -9 -9 -8 -8 -8 -8 -8 -8 -8 -8 -8 -7 -7 -7 -6 -6 -6 -5
-12 -12 -12 -11 -11 -11 -11 -11 -11 -11 -11 -11 -11 -11 -11 -11 -11 -11 -11 -11 -11 -11 -11 -10 -10 -10 -10 -10 -10 -10 -10 -10 -9 -9 -9 -9 -9 -9 -9 -8 -8 -8 -8 -8 -8 -8 -8 -8 -7 -6 -6 -6
-11 -11 -11 -11 -11 -11 -11 -11 -11 -11 -11 -11 -11 -11 -11 -11 -11 -11 -11 -11 -11 -11 -11 -10 -10 -11 -11 -10 -10 -10 -10 -10 -10 -10 -10 -10 -10 -9 -9 -9 -9 -8 -8 -8 -8 -9 -9 -8 -8 -8 -7 -7
Height
3121 3121 3121 3121 3121 3121 3121 3122 3122 3122 3122 3122 3122 3122 3122 3122 3122 3122 3122 3121 3121 3121 3121 3121 3121 3121 3122 3122 3122 3122 3123 3123 3123 3123 3123 3124 3124 3125 3125 3125 3125 3126 3126 3126 3126 3126 3125 3125 3125 3125 3126 3126
3118 3119 3119 3119 3119 3119 3119 3119 3120 3120 3120 3120 3120 3120 3120 3119 3119 3119 3119 3118 3118 3118 3118 3118 3118 3119 3119 3119 3119 3120 3120 3120 3120 3120 3120 3121 3121 3122 3122 3123 3123 3123 3123 3124 3124 3124 3124 3124 3123 3123 3124 3124
3116 3117 3117 3117 3117 3117 3117 3117 3117 3117 3117 3117 3117 3117 3117 3116 3116 3116 3116 3116 3115 3115 3115 3116 3116 3117 3117 3117 3117 3117 3117 3118 3117 3117 3117 3118 3118 3119 3119 3120 3120 3121 3121 3121 3121 3122 3122 3122 3122 3121 3121 3122
3114 3114 3114 3114 3114 3115 3115 3115 3114 3114 3114 3114 3114 3114 3114 3113 3113 3113 3113 3113 3113 3113 3113 3113 3114 3114 3114 3114 3114 3114 3114 3114 3114 3114 3114 3115 3115 3116 3116 3117 3117 3118 3118 3119 3119 3119 3119 3119 3119 3119 3119 3119
3111 3111 3111 3111 3112 3112 3112 3112 3111 3111 3111 3111 3111 3111 3111 3111 3110 3110 3110 3111 3110 3110 3111 3111 3111 3111 3111 3111 3111 3111 3111 3111 3111 3111 3111 3112 3112 3112 3113 3114 3114 3115 3115 3116 3116 3116 3116 3116 3116 3116 3116 3116
3109 3108 3108 3109 3109 3109 3109 3109 3109 3109 3109 3108 3109 3109 3108 3107 3107 3108 3107 3108 3108 3108 3108 3108 3108 3108 3108 3108 3108 3108 3108 3108 3108 3108 3108 3108 3109 3109 3109 3110 3111 3111 3111 3112 3112 3112 3112 3112 3113 3113 3113 3113
3106 3105 3105 3106 3106 3106 3106 3106 3106 3106 3106 3105 3106 3105 3105 3104 3105 3105 3104 3105 3105 3105 3105 3105 3105 3105 3105 3105 3105 3105 3105 3105 3105 3105 3104 3104 3105 3105 3105 3106 3106 3107 3107 3108 3108 3108 3108 3108 3108 3109 3109 3109
3102 3103 3103 3103 3103 3103 3103 3103 3103 3102 3102 3102 3102 3102 3102 3101 3102 3102 3101 3102 3102 3102 3102 3102 3102 3101 3101 3101 3101 3101 3101 3101 3101 3101 3101 3100 3101 3101 3101 3101 3101 3102 3102 3103 3103 3104 3104 3104 3104 3105 3105 3105
3100 3101 3100 3100 3100 3100 3099 3100 3099 3099 3099 3100 3099 3098 3098 3098 3098 3098 3097 3097 3098 3098 3098 3098 3098 3098 3097 3097 3097 3097 3097 3097 3097 3097 3097 3097 3097 3097 3097 3097 3097 3097 3098 3098 3098 3099 3100 3100 3100 3100 3101 3101
3097 3098 3097 3097 3097 3096 3096 3096 3096 3095 3095 3096 3095 3094 3095 3095 3094 3094 3093 3093 3094 3094 3094 3094 3094 3094 3093 3093 3093 3093 3093 3093 3093 3093 3093 3093 3093 3094 3094 3094 3094 3094 3094 3094 3094 3094 3095 3095 3096 3096 3096 3097
3094 3094 3094 3094 3094 3093 3093 3093 3092 3092 3091 3091 3091 3091 3092 3091 3090 3089 3089 3089 3089 3090 3090 3089 3089 3090 3089 3089 3089 3089 3089 3090 3090 3089 3089 3089 3090 3090 3090 3090 3090 3090 3090 3090 3090 3090 3091 3091 3091 3092 3092 3092
3090 3091 3091 3091 3091 3090 3089 3089 3088 3088 3086 3086 3088 3089 3088 3087 3086 3086 3085 3085 3085 3086 3086 3086 3086 3086 3085 3085 3085 3085 3085 3086 3086 3086 3085 3085 3086 3086 3086 3086 3086 3086 3087 3087 3087 3087 3087 3087 3087 3087 3088 3088
3087 3087 3087 3088 3088 3087 3086 3085 3085 3084 3083 3083 3084 3086 3085 3083 3083 3082 3082 3082 3082 3082 3082 3082 3082 3082 3082 3082 3082 3081 3081 3082 3082 3082 3082 3082 3082 3082 3082 3082 3082 3082 3082 3083 3083 3083 3083 3083 3083 3083 3083 3084
3084 3084 3085 3085 3084 3084 3083 3082 3081 3080 3080 3080 3080 3081 3081 3080 3079 3079 3078 3078 3078 3078 3078 3078 3078 3078 3078 3078 3078 3077 3077 3078 3078 3078 3078 3077 3078 3078 3078 3078 3078 3078 3078 3078 3078 3079 3079 3079 3080 3079 3079 3080
3082 3082 3082 3081 3081 3080 3079 3079 3078 3077 3076 3076 3077 3076 3076 3076 3076 3075 3074 3074 3074 3074 3074 3074 3074 3074 3074 3074 3074 3073 3074 3074 3074 3074 3073 3073 3073 3073 3073 3074 3073 3073 3073 3074 3074 3074 3074 3074 3075 3075 3075 3075
3079 3079 3078 3078 3077 3077 3076 3076 3075 3074 3073 3073 3073 3073 3072 3072 3072 3071 3071 3071 3070 3070 3070 3070 3070 3070 3070 3070 3069 3070 3070 3070 3069 3069 3069 3069 3069 3069 3069 3069 3069 3069 3069 3069 3069 3069 3069 3070 3070 3071 3071 3072
3076 3076 3075 3075 3074 3073 3073 3072 3071 3071 3070 3069 3068 3068 3068 3067 3067 3067 3067 3067 3067 3066 3066 3066 3066 3066 3066 3065 3066 3066 3066 3065 3065 3065 3065 3064 3064 3064 3064 3064 3064 3064 3064 3064 3064 3064 3064 3065 3065 3066 3067 3068
3073 3072 3072 3071 3070 3070 3069 3068 3067 3067 3066 3065 3064 3064 3064 3064 3063 3063 3063 3063 3063 3063 3062 3062 3062 3062 3061 3061 3062 3062 3062 3061 3061 3061 3060 3060 3059 3059 3059 3059 3059 3059 3059 3059 3059 3059 3060 3060 3061 3061 3062 3063
3070 3069 3068 3068 3067 3066 3065 3064 3063 3062 3062 3061 3060 3060 3059 3060 3059 3059 3059 3059 3059 3059 3058 3058 3058 3058 3057 3058 3058 3058 3057 3057 3056 3056 3055 3055 3055 3054 3054 3054 3054 3054 3054 3054 3054 3054 3055 3055 3056 3056 3057 3058
3067 3066 3065 3064 3063 3062 3061 3060 3060 3058 3058 3057 3057 3056 3056 3056 3055 3056 3056 3055 3056 3055 3055 3054 3054 3053 3053 3053 3054 3053 3053 3052 3051 3051 3050 3050 3050 3049 3049 3049 3049 3049 3049 3049 3049 3050 3050 3050 3050 3051 3052 3052
3065 3063 3062 3061 3060 3059 3058 3057 3056 3055 3054 3054 3053 3053 3053 3052 3052 3052 3052 3051 3052 3051 3051 3050 3050 3049 3049 3049 3049 3048 3048 3047 3046 3046 3045 3045 3045 3044 3044 3044 3044 3044 3044 3044 3044 3045 3045 3045 3045 3046 3046 3047
3062 3061 3059 3058 3057 3056 3055 3054 3053 3052 3051 3051 3051 3050 3049 3049 3049 3048 3048 3047 3047 3047 3046 3046 3045 3044 3044 3044 3044 3043 3043 3042 3041 3041 3040 3040 3040 3039 3039 3038 3039 3039 3039 3039 3039 3039 3040 3040 3040 3040 3040 3041
3059 3057 3056 3055 3054 3053 3052 3051 3050 3049 3048 3048 3048 3047 3046 3045 3045 3045 3044 3043 3043 3042 3042 3041 3040 3040 3039 3039 3038 3038 3038 3037 3036 3036 3035 3034 3034 3034 3034 3033 3033 3033 3033 3033 3033 3033 3034 3034 3034 3035 3035 3035
3056 3054 3053 3052 3051 3050 3049 3048 3047 3046 3045 3044 3044 3043 3042 3041 3041 3041 3039 3038 3038 3037 3037 3036 3035 3035 3034 3033 3033 3032 3032 3031 3031 3030 3030 3029 3028 3028 3028 3028 3028 3027 3027 3026 3027 3027 3027 3028 3028 3029 3029 3029
3053 3052 3051 3050 3049 3048 3046 3045 3044 3043 3042 3041 3040 3040 3038 3037 3036 3036 3035 3034 3033 3032 3031 3031 3030 3029 3028 3028 3027 3027 3026 3025 3025 3024 3024 3023 3023 3022 3022 3023 3023 3022 3020 3020 3020 3020 3021 3022 3022 3022 3022 3022
3051 3049 3048 3047 3046 3045 3044 3042 3041 3039 3038 3037 3037 3035 3034 3033 3032 3031 3030 3029 3028 3027 3026 3025 3025 3024 3023 3022 3021 3021 3020 3019 3019 3018 3017 3017 3016 3016 3016 3017 3016 3015 3014 3013 3013 3013 3014 3015 3016 3016 3016 3015
3049 3047 3046 3045 3043 3042 3041 3039 3037 3036 3034 3033 3032 3031 3030 3028 3027 3026 3025 3023 3022 3021 3020 3019 3019 3018 3017 3016 3015 3014 3014 3013 3012 3011 3011 3010 3010 3010 3010 3010 3010 3009 3008 3007 3007 3006 3007 3007 3008 3010 3010 3009
3046 3045 3043 3041 3040 3038 3037 3035 3033 3032 3030 3029 3027 3026 3024 3023 3021 3020 3019 3017 3016 3015 3013 3013 3013 3012 3010 3009 3008 3007 3007 3006 3005 3004 3004 3003 3003 3003 3003 3003 3003 3003 3002 3001 3000 2999 3000 3000 3000 3002 3003 3003
3043 3041 3039 3037 3036 3034 3032 3030 3029 3027 3026 3024 3022 3021 3019 3017 3016 3014 3013 3011 3010 3009 3007 3006 3006 3005 3003 3002 3001 3000 3000 2999 2998 2997 2997 2997 2997 2996 2995 2995 2996 2997 2996 2995 2994 2993 2993 2993 2992 2994 2995 2995
3039 3037 3035 3033 3031 3029 3027 3025 3023 3021 3020 3018 3016 3015 3013 3011 3010 3008 3006 3005 3003 3002 3000 2999 2999 2999 2996 2995 2995 2993 2993 2992 2991 2991 2990 2990 2989 2989 2988 2988 2988 2989 2989 2989 2989 2988 2987 2986 2985 2986 2987 2987
3034 3031 3029 3027 3024 3022 3020 3018 3017 3015 3013 3011 3010 3008 3006 3004 3003 3001 3000 2998 2996 2995 2993 2992 2992 2991 2989 2988 2987 2986 2986 2985 2984 2984 2983 2983 2982 2982 2981 2981 2981 2981 2981 2982 2982 2981 2980 2980 2980 2979 2980 2979
Wind_Speed
27 27 26 26 26 26 25 25 25 24 24 24 23 23 22 22 21 21 21 22 22 22 23 23 23 23 23 23 23 22 22 22 22 22 22 22 22 22 22 22 21 21 22 22 22 22 23 23 23 23 23 24
27 27 27 26 26 26 26 25 25 24 24 24 23 23 22 22 22 22 22 22 23 24 24 25 24 24 23 23 23 23 23 22 22 23 23 23 23 22 22 21 21 21 21 21 21 22 22 22 22 22 22 22
28 28 28 27 27 26 26 26 25 24 24 23 23 22 22 22 22 23 23 23 25 26 26 26 25 25 24 24 24 23 23 23 23 23 23 23 23 22 22 21 21 21 21 21 21 21 21 21 21 21 21 21
29 28 28 28 27 26 26 25 25 24 23 23 23 22 22 23 24 24 25 25 26 27 27 26 25 25 24 24 24 24 24 24 24 23 23 23 23 23 22 21 21 21 21 21 21 21 21 21 20 21 21 21
29 28 28 28 27 26 26 25 25 24 23 23 23 23 23 24 25 25 26 26 27 27 27 26 26 25 25 24 25 25 25 25 25 24 24 24 24 23 23 22 22 22 22 22 22 22 22 22 21 21 21 21
28 29 29 28 27 26 25 25 25 24 24 24 23 23 24 25 26 25 26 26 27 27 26 26 26 26 26 26 26 26 26 26 26 25 25 25 24 25 24 24 24 23 23 23 23 23 24 24 23 23 22 22
29 30 29 28 27 26 25 25 25 25 24 24 24 24 25 26 26 25 27 27 26 28 27 27 27 27 27 27 27 27 27 26 26 26 26 26 25 26 26 26 26 25 25 25 25 25 25 25 25 25 25 24
30 30 29 28 27 26 26 25 25 26 25 25 25 25 26 26 25 26 27 27 27 28 28 28 28 29 28 28 27 27 27 27 27 26 26 26 26 26 27 27 27 27 27 27 27 27 27 27 27 27 27 27
31 29 29 29 27 27 27 26 27 28 27 26 26 26 26 26 26 27 28 28 27 28 29 29 29 29 29 29 28 28 28 28 28 28 27 27 27 27 27 28 28 29 29 29 29 29 29 29 29 29 29 29
30 29 30 29 27 28 28 27 28 29 29 27 27 28 27 26 27 28 28 29 28 28 29 30 30 30 30 30 30 30 30 29 29 29 29 29 29 29 29 29 29 30 30 30 30 30 30 30 31 31 31 31
31 31 30 29 29 29 29 29 30 30 31 30 29 28 27 27 29 29 29 30 30 29 30 31 31 31 31 32 32 32 31 31 30 30 30 31 31 31 31 31 30 30 30 30 30 30 30 30 31 31 32 32
33 32 31 30 30 30 30 31 31 31 33 33 30 27 28 29 31 31 31 32 31 31 32 32 32 32 33 33 33 33 32 32 31 31 31 32 32 32 32 32 32 31 31 31 31 30 30 30 31 31 32 32
34 33 32 32 31 31 32 32 33 34 34 34 32 29 29 31 32 33 34 34 33 33 33 33 33 34 33 34 33 33 33 32 32 32 33 33 33 33 33 33 33 33 32 32 31 31 31 30 30 31 32 32
36 34 33 33 32 32 33 34 35 35 35 35 34 32 32 32 34 35 35 35 34 34 35 34 34 35 34 34 34 34 34 33 32 33 33 34 34 34 34 34 34 34 33 32 32 32 32 31 31 31 32 33
36 35 34 34 34 34 35 35 36 36 36 36 35 35 35 34 35 36 36 36 36 35 35 35 35 35 35 35 35 35 35 33 33 34 34 34 35 35 34 34 34 34 34 33 33 32 32 32 32 31 32 33
37 36 35 35 35 36 36 36 36 37 37 37 37 36 36 36 36 36 37 37 36 36 36 36 35 35 35 36 36 35 34 34 34 34 34 35 35 36 35 35 35 35 34 34 33 33 33 33 33 32 33 33
37 37 36 36 36 36 36 37 37 37 37 37 38 37 36 37 37 37 36 37 37 36 36 36 36 36 36 37 36 35 34 35 35 35 35 36 36 36 36 36 36 36 36 35 35 34 34 34 34 34 34 34
37 37 37 37 37 37 37 37 36 36 37 37 37 37 36 36 37 37 36 36 36 36 37 37 37 37 37 37 36 35 35 36 36 36 36 37 37 37 37 37 37 37 37 36 36 36 36 36 37 37 36 36
38 38 37 37 36 36 36 36 36 36 36 36 37 37 37 36 37 37 36 36 37 37 37 38 37 38 38 38 37 36 37 38 38 37 38 38 38 38 38 38 38 38 38 37 37 38 38 38 38 38 38 38
37 36 36 36 36 35 35 35 35 35 36 36 37 37 37 37 37 38 37 37 37 37 38 38 39 39 40 39 38 38 38 39 39 38 39 39 39 39 39 40 40 39 39 39 39 39 39 40 40 40 39 39
35 35 35 35 35 35 35 35 35 36 37 37 38 38 38 38 39 39 38 39 39 38 39 39 40 40 41 40 40 40 39 40 40 40 40 40 40 41 41 42 41 41 41 41 41 41 41 41 41 41 41 41
33 33 33 34 34 34 35 36 36 37 38 38 38 39 39 39 40 40 39 40 40 40 40 41 41 42 42 42 42 41 41 41 41 42 42 42 42 43 43 44 44 44 44 44 44 43 43 42 42 42 42 42
31 32 33 34 35 35 36 37 38 38 39 39 39 39 40 41 40 41 41 42 42 42 42 42 43 43 44 44 44 43 43 43 43 44 44 45 45 45 46 46 46 47 47 47 47 46 45 44 43 43 43 43
32 33 34 34 35 36 36 37 38 39 40 40 40 40 42 42 42 42 43 43 43 43 43 44 44 44 45 45 45 45 45 45 45 46 46 47 47 48 48 48 49 49 50 50 49 48 47 46 45 44 43 43
33 34 35 35 36 36 37 37 39 40 41 42 42 42 43 44 45 44 44 45 45 45 45 45 45 46 46 46 46 47 47 47 48 48 49 50 50 51 51 51 51 51 52 52 51 50 48 46 45 45 44 43
34 35 36 36 37 38 39 40 41 43 44 44 45 45 46 47 48 48 47 48 48 48 48 48 48 48 49 49 50 50 50 51 51 52 52 53 53 54 54 53 53 52 52 52 51 50 49 47 45 45 44 45
34 35 36 37 38 39 40 42 43 44 45 46 46 47 47 48 49 50 50 50 51 51 52 52 52 52 52 53 53 54 54 54 55 55 55 56 56 56 55 54 53 52 51 51 51 51 50 48 47 46 45 46
36 36 37 38 39 40 41 42 43 43 44 45 45 45 46 46 46 47 48 48 49 50 51 52 52 53 53 54 55 55 56 56 56 56 56 56 55 55 54 53 51 50 50 51 51 52 51 51 50 48 47 47
38 39 40 40 41 42 42 43 44 44 45 45 45 45 45 46 45 46 46 46 46 46 47 48 48 49 50 51 52 52 53 53 53 53 53 52 52 52 52 52 51 50 50 50 51 52 52 52 52 51 50 50
41 42 43 44 45 45 46 46 47 47 47 47 47 47 47 47 47 47 47 47 47 47 47 47 47 46 47 48 49 49 49 50 50 50 50 50 51 51 51 52 52 51 51 51 51 52 52 53 54 54 53 53
45 46 47 48 48 49 49 50 50 49 49 49 49 49 49 49 49 48 48 48 49 49 49 49 48 47 48 48 49 49 49 49 49 50 50 50 50 50 51 51 52 52 52 52 51 51 52 53 54 55 55 55
Wind_Direction
276 276 277 277 278 279 280 281 281 280 278 277 275 273 271 269 267 264 263 262 262 262 262 262 262 263 263 265 266 266 265 265 265 265 265 265 264 264 265 265 265 265 266 266 267 268 270 272 273 273 272 273
276 277 277 277 278 279 280 279 278 278 276 276 274 272 271 268 265 263 261 260 260 260 260 261 261 261 262 262 263 263 263 262 262 263 263 263 262 261 261 260 260 261 261 262 262 263 264 267 270 271 271 271
275 276 276 277 278 278 278 278 277 277 276 275 274 272 270 267 264 261 260 259 259 259 259 260 260 260 260 260 260 260 260 260 259 260 260 260 260 259 258 256 256 256 256 257 258 259 260 261 264 268 270 271
275 276 276 277 276 277 277 277 276 276 275 273 272 270 267 264 261 260 259 258 257 258 259 259 259 258 258 257 257 258 257 257 257 257 257 257 257 257 256 255 254 254 254 254 255 257 259 260 262 266 270 273
276 276 275 275 275 276 276 275 274 274 273 271 270 268 266 263 261 260 259 257 256 257 257 258 257 256 255 254 254 255 255 255 255 255 255 255 254 255 254 254 255 255 256 256 257 258 260 262 264 267 271 274
275 275 274 275 276 275 275 274 273 273 272 272 271 269 266 264 263 262 260 258 257 257 256 256 256 254 253 252 252 252 253 254 254 255 255 255 255 256 257 257 258 259 261 263 264 264 265 266 268 269 272 275
274 274 276 276 276 275 274 273 273 273 273 273 272 270 267 265 265 262 261 259 257 257 256 253 253 253 252 251 252 252 253 254 256 257 258 258 258 259 261 262 264 264 265 267 268 270 271 272 272 273 274 275
274 276 277 276 275 275 275 274 274 274 273 274 273 270 268 267 266 263 261 260 256 255 254 252 251 252 252 252 253 254 255 256 257 258 260 261 262 263 265 267 269 271 271 272 272 272 273 274 275 275 276 277
276 277 276 275 276 276 275 275 274 274 274 275 274 271 269 268 267 264 263 261 257 255 255 254 253 253 253 253 254 255 257 257 257 259 260 261 263 265 267 269 272 274 275 276 276 275 275 275 276 276 277 278
275 274 273 275 275 274 274 275 275 276 277 276 274 272 271 270 268 265 263 263 260 257 256 255 255 254 254 254 255 255 257 257 258 260 261 261 263 265 267 269 272 274 276 277 277 277 277 277 277 277 278 279
271 271 272 273 273 274 275 275 276 278 279 276 274 274 274 272 270 268 266 265 263 260 258 257 256 255 255 256 256 257 258 259 260 262 263 264 265 267 268 270 271 273 274 276 277 277 278 279 279 279 280 281
270 270 271 271 272 274 275 276 278 278 278 277 277 276 275 273 271 271 269 267 266 263 261 259 258 257 257 258 258 259 260 261 262 263 265 266 267 268 269 270 271 272 272 273 273 274 276 277 279 280 281 282
268 269 270 272 273 274 275 277 278 278 278 279 279 275 272 272 271 271 269 268 266 264 262 259 258 258 258 259 259 260 261 262 264 266 267 268 269 270 270 271 271 271 271 271 271 272 273 274 276 277 279 280
266 268 270 272 273 273 274 276 277 278 278 278 277 275 273 271 271 270 269 268 266 264 262 260 259 259 259 260 261 262 263 265 266 268 269 269 270 271 272 272 272 271 271 271 270 270 271 271 272 275 277 278
266 268 269 270 271 272 273 274 276 276 276 276 276 276 275 273 271 269 268 267 266 264 263 261 260 260 260 261 262 264 266 268 268 269 270 271 271 271 271 272 273 273 272 271 271 270 271 271 271 272 274 276
263 265 266 268 269 270 272 274 274 274 275 275 275 275 275 274 271 269 268 267 266 265 263 262 261 261 262 263 263 265 268 269 269 270 270 271 271 272 272 272 272 272 272 272 272 272 273 273 273 272 273 274
262 264 265 267 268 270 271 272 273 273 273 274 274 274 273 272 271 269 267 266 266 265 264 263 262 262 263 263 265 267 268 268 269 270 270 271 272 272 273 273 273 273 273 273 273 273 274 274 273 273 273 273
261 262 264 266 268 269 270 271 271 272 272 272 273 273 271 269 268 268 266 265 265 265 264 264 264 264 264 264 266 266 267 267 268 269 270 271 272 273 274 274 275 275 275 275 275 275 275 274 274 274 273 273
260 262 264 266 267 268 269 269 269 269 269 269 269 270 269 267 266 266 265 264 264 264 264 265 265 265 265 265 266 266 266 267 268 269 270 271 272 273 274 275 276 276 276 277 277 277 277 276 276 275 275 274
262 264 266 267 267 267 267 267 266 266 266 266 267 267 267 266 266 265 265 264 264 264 265 265 265 265 265 266 266 266 266 267 268 269 270 271 273 274 275 276 276 277 278 278 278 278 278 278 278 277 276 275
263 264 265 265 265 264 264 264 264 264 264 265 265 266 265 265 265 265 266 265 265 265 266 266 266 266 266 266 266 266 267 268 269 270 271 272 274 275 276 276 277 278 278 279 279 279 279 279 278 277 276 275
261 262 262 262 263 262 263 264 263 263 264 265 265 266 266 266 266 267 267 267 267 267 267 267 268 267 268 268 267 268 268 269 270 271 272 273 274 275 277 277 278 279 279 279 280 280 280 279 278 277 276 275
259 259 260 261 262 263 264 265 266 266 266 267 266 267 268 268 268 269 269 269 269 269 269 269 269 269 269 269 269 270 270 271 271 272 273 274 275 276 277 278 279 280 280 280 280 280 279 278 277 276 276 275
258 258 260 261 263 265 267 269 270 271 271 270 270 270 271 270 270 271 271 272 271 271 271 270 270 270 270 270 271 271 271 272 272 273 274 275 276 277 278 279 281 282 282 281 280 280 279 278 277 276 275 274
259 260 261 263 265 267 269 271 273 274 275 275 275 275 275 274 273 273 273 273 273 273 273 272 272 271 271 272 272 272 272 273 273 274 275 276 276 277 278 280 281 282 282 281 280 279 278 277 276 275 275 274
263 265 267 269 270 272 274 276 277 277 278 278 279 279 278 278 277 276 275 275 275 274 274 274 274 273 273 274 273 273 274 274 275 275 276 276 277 278 279 280 281 281 281 281 280 279 277 275 274 274 276 276
271 274 276 278 279 280 280 281 282 282 283 283 283 282 282 281 280 280 279 278 277 276 276 275 275 275 275 275 275 274 275 275 276 276 276 277 277 278 278 279 280 280 280 280 280 279 278 276 275 274 275 276
279 281 283 284 285 286 286 287 288 288 289 289 288 287 287 286 285 284 283 281 280 279 278 277 276 277 277 276 276 275 275 275 275 276 276 276 276 277 277 277 277 277 278 279 279 279 278 278 277 275 274 274
286 286 287 288 289 290 290 291 292 292 292 291 291 290 289 289 287 287 285 284 283 282 281 280 279 278 278 277 276 276 276 275 275 275 275 275 275 275 275 275 275 275 275 276 277 278 278 278 277 275 275 273
293 293 293 293 293 293 293 293 293 293 293 293 292 291 290 289 288 287 286 285 285 283 282 281 281 280 279 278 277 276 276 275 274 274 274 274 273 273 273 274 273 273 273 274 274 275 276 276 276 275 275 274
298 298 297 297 296 296 295 295 294 294 293 293 292 291 290 289 288 287 286 285 284 283 282 282 281 280 278 278 277 276 276 275 274 274 273 273 272 272 272 272 272 272 272 272 272 273 273 274 275 275 274 274